Flag for Guernsey Weather past 2 weeks in St. Peter Port, Guernsey

Now
63 °F

Passing clouds.


Feels Like: 63 °F
Forecast: 56 / 63 °F
Wind: 14 mph from West

Location: Guernsey Airport

Current Time: Sep 1, 2015 at 5:20:58 PM

Latest Report: Sep 1, 2015 at 4:50 PM


Visibility: N/A

Pressure: 30.15 "Hg

Humidity: 73%

Dew point: 54 °F

Location of St. Peter PortLocation

Historic Weather in St. Peter Port — Graph

°F

St. Peter Port temperature yesterday

Maximum temperature yesterday: 63 °F (at 3:50 AM)
Minimum temperature yesterday: 57 °F (at 8:20 PM)
Average temperature yesterday: 61 °F

Past Weeks' High & Low Weather Summary

 TemperatureHumidityPressure
High73 °F (Aug 21, 4:50 PM)100% (Aug 19, 3:50 AM)30.18 "Hg (Aug 19, 3:50 AM)
Low55 °F (Aug 18, 3:50 AM)56% (Aug 17, 4:20 PM)29.36 "Hg (Aug 24, 6:20 AM)
Average62 °F88%29.92 "Hg
* Reported Aug 17 4:20 PM — Sep 1 4:20 PM, St. Peter Port, Weather by CustomWeather, © 2015

Note: Actual official high and low records may vary slightly from our data, if they occured in-between our weather recording intervals... More about our weather records

Advertising

St. Peter Port weather history for previous 24 hours

 ConditionsComfort  
Time TempWeatherWind HumidityBarometerVisibility
4:20 PM
Tue, Sep 1
63 °FPassing clouds.15 mph73%30.15 "HgN/A
3:50 PM63 °FPassing clouds.13 mph73%30.15 "HgN/A
3:20 PM63 °FPassing clouds.15 mph73%30.15 "HgN/A
2:50 PM63 °FPassing clouds.12 mph68%30.15 "HgN/A
2:20 PM63 °FPassing clouds.10 mph73%30.15 "HgN/A
1:50 PM63 °FPassing clouds.10 mph73%30.15 "HgN/A
1:20 PM61 °FPassing clouds.10 mph77%30.15 "HgN/A
12:50 PM61 °FPassing clouds.10 mph77%30.15 "HgN/A
12:20 PM61 °FScattered clouds.12 mph77%30.15 "HgN/A
11:50 AM61 °FScattered clouds.12 mph77%30.15 "HgN/A
11:20 AM61 °FScattered clouds.12 mph77%30.15 "HgN/A
10:50 AM61 °FPartly sunny.10 mph77%30.15 "HgN/A
10:20 AM61 °FScattered clouds.12 mph77%30.12 "HgN/A
9:50 AM59 °FScattered clouds.12 mph82%30.12 "HgN/A
9:20 AM59 °FPartly sunny.10 mph88%30.12 "HgN/A
8:50 AM59 °FPartly sunny.9 mph82%30.09 "HgN/A
8:20 AM57 °FPartly sunny.10 mph88%30.09 "HgN/A
7:50 AM59 °FPartly sunny.9 mph82%30.07 "HgN/A
7:20 AM57 °FPassing clouds.9 mph88%30.07 "HgN/A
6:50 AM57 °FPassing clouds.9 mph88%30.07 "HgN/A
6:20 AM57 °FPassing clouds.9 mph88%30.07 "HgN/A
5:50 AM57 °FPassing clouds.9 mph94%30.07 "HgN/A
5:20 AM57 °FPassing clouds.8 mph94%30.04 "HgN/A
4:20 AM57 °FPassing clouds.8 mph94%30.04 "HgN/A
3:50 AM57 °FPassing clouds.9 mph94%30.04 "HgN/A
8:50 PM
Mon, Aug 31
59 °FPartly sunny.12 mph94%30.01 "HgN/A
8:20 PM57 °FPassing clouds.8 mph94%30.01 "HgN/A
7:50 PM59 °FPartly sunny.9 mph94%30.01 "HgN/A
7:20 PM59 °FPartly sunny.9 mph94%29.98 "HgN/A
6:50 PM61 °FPassing clouds.12 mph83%29.98 "HgN/A
6:20 PM61 °FBroken clouds.12 mph88%29.98 "HgN/A
5:50 PM61 °FPartly sunny.13 mph83%29.98 "HgN/A
5:20 PM59 °FPartly sunny.13 mph94%29.98 "HgN/A
Weather by CustomWeather, © 2015

See weather overviewHow to use our weather pages